Temperature
13 13 12 10 10 10 9 9 9 9 9 7 5 5 4 2 0 -1 -3 -4 -4 -5 -5 -6 -7 -8 -8 -9 -10 -10 -11 -12 -12 -13 -13 -14 -14 -14 -14 -14 -14 -14 -14 -13
12 12 10 9 9 9 9 9 8 8 7 5 6 5 3 1 -1 -2 -4 -4 -5 -5 -5 -6 -7 -8 -9 -9 -10 -10 -11 -12 -12 -13 -13 -14 -14 -14 -14 -14 -14 -14 -14 -13
10 12 11 10 11 9 9 9 9 8 7 5 5 4 2 -1 -2 -3 -4 -4 -5 -5 -6 -7 -8 -8 -9 -9 -10 -11 -11 -12 -12 -13 -13 -14 -14 -14 -14 -14 -14 -14 -14 -13
8 9 10 11 8 10 10 9 9 8 7 5 4 2 0 -2 -2 -3 -4 -4 -5 -5 -6 -7 -8 -8 -9 -10 -10 -11 -11 -12 -12 -13 -13 -13 -14 -14 -14 -14 -14 -14 -13 -13
7 8 9 9 7 8 8 7 8 7 6 5 4 2 -3 -3 -3 -3 -4 -4 -5 -6 -6 -7 -8 -8 -9 -10 -10 -11 -11 -12 -12 -13 -13 -13 -13 -13 -13 -13 -13 -13 -13 -13
7 7 8 10 7 8 7 5 7 6 5 4 2 -0 -2 -3 -3 -3 -4 -4 -5 -6 -6 -7 -8 -9 -9 -10 -10 -11 -11 -12 -13 -13 -13 -13 -13 -13 -13 -13 -13 -13 -13 -13
6 6 8 7 6 6 5 7 5 5 4 2 1 -1 -2 -3 -3 -3 -4 -4 -5 -6 -6 -7 -8 -9 -9 -10 -10 -11 -11 -12 -13 -13 -13 -13 -13 -13 -13 -13 -13 -13 -13 -13
8 7 8 6 5 4 5 5 5 4 3 1 0 -1 -2 -3 -3 -3 -4 -4 -5 -6 -6 -7 -8 -8 -9 -10 -10 -10 -11 -12 -12 -13 -13 -13 -13 -13 -13 -13 -13 -13 -13 -13
10 9 8 7 6 6 6 5 4 3 2 1 -1 -2 -2 -3 -3 -4 -4 -5 -5 -6 -6 -7 -8 -8 -9 -9 -10 -10 -11 -12 -12 -13 -13 -13 -13 -13 -13 -13 -13 -14 -13 -13
8 8 7 7 6 5 5 4 3 3 2 1 -1 -2 -2 -3 -3 -4 -4 -5 -5 -6 -6 -7 -7 -8 -9 -9 -9 -9 -11 -12 -12 -13 -13 -13 -14 -14 -13 -13 -13 -13 -14 -14
7 8 7 6 5 4 4 3 3 2 1 0 -1 -2 -2 -3 -3 -4 -4 -5 -5 -6 -6 -7 -7 -8 -8 -9 -9 -9 -11 -12 -12 -13 -13 -13 -13 -14 -13 -13 -13 -13 -14 -14
8 10 7 6 5 4 3 3 3 2 1 -1 -1 -2 -2 -3 -3 -4 -4 -5 -5 -6 -6 -7 -7 -7 -8 -8 -8 -9 -10 -11 -12 -12 -13 -13 -13 -13 -14 -13 -13 -14 -14 -14
10 9 8 7 5 3 3 3 2 1 1 -0 -1 -2 -2 -3 -3 -4 -4 -5 -5 -6 -6 -7 -7 -7 -8 -8 -8 -9 -10 -11 -11 -12 -12 -13 -13 -14 -14 -14 -14 -14 -14 -14
9 8 6 4 4 2 3 2 2 1 -0 -1 -2 -2 -2 -3 -3 -4 -4 -5 -5 -5 -6 -6 -7 -7 -7 -7 -8 -8 -9 -10 -11 -11 -12 -12 -12 -13 -14 -14 -14 -14 -14 -14
7 6 6 5 3 2 2 2 1 1 -1 -1 -2 -2 -3 -3 -3 -4 -4 -5 -5 -5 -6 -6 -6 -7 -7 -7 -8 -8 -9 -9 -10 -10 -11 -12 -12 -12 -13 -13 -14 -14 -14 -14
5 4 4 4 4 3 2 2 1 1 -0 -1 -2 -2 -3 -3 -3 -4 -4 -4 -5 -5 -5 -6 -6 -6 -7 -7 -7 -8 -8 -9 -9 -9 -10 -11 -11 -12 -12 -13 -13 -14 -14 -14
5 3 2 3 4 4 3 3 2 1 -0 -1 -2 -2 -3 -3 -4 -4 -4 -4 -5 -5 -5 -5 -6 -6 -7 -7 -7 -8 -8 -8 -9 -9 -9 -10 -11 -11 -11 -12 -12 -12 -13 -13
8 8 8 7 5 4 3 2 1 0 -0 -1 -2 -2 -3 -3 -3 -4 -4 -4 -5 -5 -5 -5 -6 -6 -6 -6 -7 -7 -8 -8 -8 -9 -9 -9 -10 -10 -11 -11 -11 -11 -12 -12
6 6 5 5 5 5 4 3 2 0 -1 -1 -2 -2 -3 -3 -4 -4 -4 -4 -4 -5 -5 -5 -5 -6 -6 -6 -6 -7 -7 -7 -8 -8 -9 -9 -9 -10 -10 -10 -10 -10 -11 -11
5 5 5 5 4 4 3 2 1 0 -1 -1 -2 -3 -3 -3 -4 -4 -4 -4 -4 -4 -5 -5 -5 -5 -5 -6 -6 -7 -7 -7 -7 -8 -8 -8 -9 -9 -10 -10 -10 -10 -10 -10
5 5 4 4 4 3 3 2 1 1 -0 -1 -2 -2 -3 -3 -4 -4 -4 -4 -4 -4 -4 -4 -5 -5 -5 -6 -6 -6 -6 -6 -7 -7 -7 -8 -9 -9 -10 -10 -10 -11 -11 -11
5 5 4 4 3 3 2 2 1 0 -0 -1 -2 -3 -3 -3 -4 -4 -4 -4 -4 -4 -4 -4 -5 -5 -5 -6 -6 -6 -6 -6 -6 -6 -7 -8 -8 -9 -9 -10 -11 -11 -11 -11
6 5 4 4 3 3 2 2 1 0 -0 -1 -2 -2 -3 -3 -4 -4 -4 -4 -4 -4 -4 -4 -5 -5 -5 -5 -6 -6 -6 -6 -6 -6 -7 -7 -7 -8 -9 -9 -10 -11 -11 -11
6 4 4 3 3 2 2 2 1 0 -1 -2 -2 -3 -3 -4 -4 -4 -4 -4 -4 -4 -4 -4 -5 -5 -5 -5 -5 -5 -6 -5 -6 -6 -6 -6 -7 -7 -7 -8 -9 -10 -11 -11
6 4 3 3 3 3 2 1 1 -0 -1 -2 -3 -3 -4 -4 -4 -4 -4 -4 -4 -4 -4 -5 -5 -5 -5 -5 -5 -5 -6 -6 -6 -6 -6 -6 -6 -7 -7 -7 -8 -9 -10 -10
5 4 4 3 3 3 2 1 0 -0 -1 -2 -2 -3 -3 -4 -4 -4 -4 -5 -5 -5 -5 -5 -5 -5 -5 -5 -5 -5 -6 -6 -6 -6 -6 -6 -6 -7 -7 -7 -7 -8 -9 -9
4 4 3 2 2 2 2 1 1 0 -0 -1 -1 -2 -3 -4 -4 -4 -5 -5 -5 -5 -5 -5 -5 -5 -5 -5 -5 -6 -6 -6 -6 -6 -6 -7 -7 -7 -7 -7 -7 -7 -8 -8
Wind_Speed
8 5 4 6 7 6 8 8 7 7 7 5 7 6 8 9 9 8 8 8 9 9 9 10 11 11 10 11 10 11 11 10 10 10 11 13 15 15 14 14 16 12 13 15
6 3 3 7 9 9 8 8 9 10 6 7 5 7 8 9 8 7 7 8 9 10 10 11 11 12 11 11 11 11 10 10 10 10 12 13 14 15 15 15 13 13 14 15
5 2 5 8 6 11 6 7 6 4 2 5 5 7 7 8 7 6 7 7 8 9 10 10 11 10 11 12 12 11 10 10 10 11 12 13 16 14 14 12 12 13 14 14
5 7 6 4 4 1 6 5 6 3 2 5 5 7 9 8 7 6 6 7 7 8 9 9 9 10 10 11 12 11 10 11 11 11 11 12 12 12 11 10 10 10 12 14
2 5 9 3 3 3 4 6 6 5 4 6 6 5 6 6 6 5 5 5 6 7 8 9 10 10 11 11 11 11 12 12 12 12 11 12 11 11 10 9 9 9 10 13
2 3 6 3 6 4 3 5 5 6 6 6 4 2 2 3 5 5 5 5 6 7 7 9 10 10 10 12 12 13 13 13 13 12 11 11 11 10 10 9 10 11 11 11
5 7 9 4 7 7 4 5 8 7 7 6 3 4 6 5 5 5 5 6 7 8 8 9 9 9 10 11 12 12 13 13 12 12 12 11 10 9 10 10 11 11 11 10
5 6 10 8 8 8 6 6 8 8 7 8 8 9 7 6 4 5 5 6 7 7 8 8 8 9 10 11 11 12 13 13 12 12 12 12 10 9 9 9 10 10 10 10
8 9 3 9 7 5 8 8 7 7 8 9 8 8 7 5 4 4 5 6 6 7 8 8 8 9 10 10 11 13 13 12 12 12 9 9 9 9 8 8 8 9 9 10
7 7 7 8 7 8 7 9 10 9 9 8 8 8 7 4 3 3 4 5 6 7 8 8 9 9 9 9 11 12 13 12 12 11 10 9 9 8 8 8 7 8 9 9
8 3 6 8 9 8 10 13 12 9 8 8 9 8 6 4 2 2 3 4 5 6 7 8 9 9 9 9 10 11 11 10 11 11 9 9 10 10 11 7 10 8 6 6
9 7 9 9 12 12 13 12 13 12 9 8 8 9 7 4 3 1 3 4 5 7 8 8 9 9 9 8 10 11 11 10 9 8 9 9 8 9 17 18 19 17 14 12
3 5 5 10 13 12 12 12 11 10 11 10 8 7 7 5 3 1 3 5 6 7 8 8 8 9 9 8 11 11 10 9 8 10 8 9 10 9 10 13 18 18 17 15
9 8 7 7 9 12 12 12 10 10 9 9 8 7 6 4 2 1 3 4 6 7 7 7 8 8 8 10 11 11 9 11 11 7 7 7 7 8 8 10 9 8 11 16
9 7 8 9 13 13 14 13 13 10 10 9 8 7 7 5 3 2 4 5 6 6 5 7 8 9 9 10 11 11 9 7 7 6 6 6 6 6 6 8 8 7 6 9
10 8 12 14 16 15 15 13 12 12 10 9 8 8 7 5 2 4 5 4 4 5 6 7 7 9 11 10 11 9 8 15 13 8 7 7 6 6 6 6 7 6 6 6
15 13 12 15 16 17 15 13 13 13 11 11 10 9 7 5 3 5 3 2 3 6 7 5 7 9 11 10 8 7 7 9 16 10 7 7 7 6 6 6 7 7 7 10
16 16 16 20 19 17 15 12 12 13 11 10 10 9 8 7 5 3 1 3 5 7 5 3 6 9 9 9 7 5 6 6 7 7 7 8 9 7 7 7 8 9 8 10
12 12 13 14 15 16 15 14 13 12 11 12 12 10 8 6 4 2 2 4 5 6 4 6 11 8 7 11 12 4 6 7 8 8 7 12 12 9 9 9 9 9 9 9
12 12 13 13 13 13 14 12 13 12 11 11 10 9 8 6 5 4 3 5 5 4 5 7 7 5 7 10 12 5 6 7 8 8 8 9 10 10 11 11 11 10 10 9
13 13 14 15 13 12 13 14 15 14 12 12 12 11 9 7 6 5 3 4 4 4 6 7 4 5 8 10 10 5 6 6 7 7 9 10 11 11 12 12 13 13 12 11
13 14 15 15 15 13 12 12 13 14 13 11 10 9 9 7 6 5 6 5 3 5 4 3 3 7 10 10 5 5 6 6 6 7 8 10 10 11 12 13 13 13 13 13
12 13 15 15 15 13 12 11 12 14 14 13 13 12 9 7 6 5 4 4 3 5 4 3 5 9 10 6 4 5 6 6 6 8 8 9 9 10 11 12 12 13 13 13
13 14 13 12 13 14 14 12 11 10 10 10 10 10 9 6 5 5 3 3 4 5 3 4 6 7 7 4 4 5 5 5 6 7 7 8 8 9 10 11 12 12 13 14
15 14 15 16 15 13 12 12 11 9 9 8 8 8 7 5 4 5 5 4 5 5 3 4 5 5 4 3 3 4 5 5 5 6 6 8 8 9 10 10 12 12 12 13
13 14 14 13 12 11 12 12 11 11 11 10 9 9 8 6 5 4 4 4 6 6 4 3 3 3 3 3 4 4 4 6 6 6 6 7 8 8 9 10 12 11 12 15
11 11 10 9 8 10 12 12 13 13 13 12 11 10 10 8 7 7 6 5 5 4 4 4 4 3 3 3 4 5 6 6 7 7 8 9 10 10 12 14 15 16 18 19
Wind_Direction
287 268 209 246 261 246 221 236 256 284 338 25 79 48 48 62 52 32 16 7 359 350 343 341 339 335 334 330 327 326 319 318 319 323 325 326 326 325 326 327 328 325 325 321
287 186 206 252 237 239 247 243 256 282 312 95 60 46 53 66 48 24 8 360 352 345 342 339 334 330 330 327 326 319 316 318 322 327 329 329 329 331 330 328 326 326 323 320
288 260 264 273 230 196 210 211 229 262 109 81 40 35 65 77 54 24 10 355 345 341 338 329 324 326 330 330 321 319 323 329 331 329 329 332 334 331 328 326 327 326 322 322
299 334 276 251 7 80 202 225 218 240 75 89 63 66 87 77 59 29 8 350 338 332 324 317 321 328 326 321 320 328 337 337 333 329 327 328 328 326 326 324 324 320 322 326
315 295 277 217 190 175 195 265 199 187 137 97 59 84 88 63 61 42 11 352 334 325 320 327 328 325 324 324 332 342 342 339 333 329 329 329 330 329 330 327 324 322 326 330
187 250 262 243 137 102 86 260 151 139 128 99 64 328 155 94 66 42 14 353 339 333 334 329 321 322 330 335 344 345 341 335 330 330 330 330 332 333 332 331 332 333 333 335
217 238 267 153 135 125 169 243 140 131 122 114 118 134 132 109 71 39 14 352 349 343 334 321 319 334 338 341 344 339 335 331 331 333 332 335 334 334 335 340 340 339 341 342
201 229 257 151 151 191 203 126 129 122 118 118 117 117 116 103 78 40 9 355 351 341 326 320 333 344 339 341 338 337 334 334 335 334 340 347 339 339 340 343 346 347 350 353
208 222 166 164 183 158 133 140 127 118 121 125 129 130 124 113 83 41 12 354 344 332 323 328 342 346 338 335 341 339 336 336 336 336 341 345 344 343 344 345 350 356 357 359
272 248 185 180 135 141 142 128 119 126 129 132 133 130 129 121 90 40 7 348 338 331 330 333 339 339 333 338 343 337 336 338 339 341 346 347 350 350 349 346 353 4 1 358
251 227 138 180 161 147 118 115 116 118 124 133 132 137 144 144 106 45 353 338 336 331 330 330 331 332 336 346 343 337 336 340 342 346 345 348 353 354 355 351 4 11 355 350
229 203 181 194 167 146 140 142 141 135 131 133 138 144 150 156 129 54 339 338 339 335 331 325 328 329 338 346 343 338 342 345 345 346 349 351 350 352 359 2 7 12 9 9
157 117 122 143 147 143 146 147 147 145 145 140 139 148 155 144 127 45 349 352 335 322 315 321 330 330 339 343 341 338 338 341 344 347 347 352 356 354 351 355 5 7 6 4
121 109 116 140 150 144 136 137 130 125 131 140 148 151 142 134 123 354 326 316 304 303 314 335 331 329 335 338 339 337 335 341 347 334 339 343 348 349 350 350 349 350 355 357
163 152 154 140 130 128 135 137 137 142 149 153 146 144 148 158 186 254 287 286 294 306 335 334 325 326 330 336 339 334 334 332 334 331 334 335 337 339 340 340 340 337 333 344
167 140 137 144 147 149 151 153 159 164 163 157 155 163 166 163 194 260 266 277 315 314 314 311 316 320 328 335 336 333 331 340 347 340 332 331 330 329 329 328 327 326 326 322
156 160 162 169 168 170 173 172 170 168 165 165 169 161 155 167 223 251 251 358 310 285 281 300 313 312 321 327 327 327 325 329 341 337 326 326 325 325 321 319 319 319 315 319
182 180 177 175 174 173 173 167 164 164 167 164 152 154 166 184 209 209 303 317 300 291 275 320 303 306 317 321 324 325 322 321 323 323 327 331 335 328 322 318 316 315 313 315
174 166 166 167 169 168 167 167 163 159 153 154 161 171 179 182 169 182 269 285 282 285 291 311 320 332 317 325 342 327 326 324 327 328 330 340 342 331 328 324 320 315 311 311
165 159 155 154 154 158 161 156 150 153 157 159 161 162 168 176 178 199 241 257 248 253 288 292 305 312 315 324 342 330 329 328 330 334 338 341 339 338 336 334 332 326 319 312
161 155 153 155 156 156 158 155 156 161 163 165 168 171 174 175 176 186 217 260 238 229 278 308 333 311 315 332 343 333 329 332 335 337 342 343 341 341 340 341 341 341 337 330
161 159 158 157 157 157 157 157 159 159 160 166 166 161 162 172 184 203 223 230 252 281 290 294 301 312 328 343 338 327 331 337 339 340 344 344 342 341 341 342 342 343 343 341
163 162 162 163 162 156 151 158 162 164 168 172 173 174 177 181 184 193 222 203 209 266 283 265 293 317 333 347 331 328 333 339 340 343 343 341 340 339 338 338 340 341 342 342
163 163 161 152 143 148 162 168 162 165 167 169 172 172 170 174 192 206 205 202 230 262 266 273 297 316 336 342 325 328 330 329 331 338 340 338 337 337 337 337 339 340 340 341
162 158 155 155 161 170 166 154 150 153 159 168 170 174 177 174 176 174 169 191 232 255 264 275 290 313 330 319 319 324 324 321 329 342 339 336 335 335 334 336 339 338 340 342
164 168 170 172 169 163 161 163 171 175 177 180 183 184 185 185 184 175 177 198 220 241 241 248 267 290 299 307 314 318 319 325 335 334 330 332 330 331 332 333 332 336 339 341
151 157 158 161 163 163 165 172 178 182 184 185 184 182 181 181 184 190 194 200 207 216 221 227 232 247 267 286 301 311 316 319 325 327 331 331 330 330 330 329 332 337 341 342
Height
1591 1589 1592 1594 1594 1593 1596 1596 1597 1589 1589 1591 1595 1595 1596 1596 1596 1596 1594 1592 1589 1585 1580 1575 1570 1564 1558 1552 1546 1540 1533 1527 1521 1515 1508 1502 1496 1490 1485 1480 1475 1470 1463 1457
1593 1587 1592 1593 1590 1591 1591 1591 1590 1589 1590 1592 1593 1594 1595 1595 1595 1595 1594 1591 1588 1584 1579 1574 1568 1562 1556 1550 1544 1538 1532 1526 1520 1513 1506 1500 1494 1489 1484 1478 1473 1468 1462 1456
1600 1588 1589 1587 1578 1584 1585 1584 1586 1588 1591 1591 1592 1594 1594 1594 1595 1594 1592 1590 1586 1583 1578 1573 1567 1562 1556 1549 1543 1537 1531 1525 1518 1511 1505 1499 1494 1488 1483 1477 1472 1467 1461 1456
1605 1599 1598 1577 1580 1577 1579 1580 1581 1584 1587 1589 1592 1593 1593 1593 1594 1593 1591 1588 1585 1581 1577 1572 1567 1562 1555 1549 1542 1536 1530 1523 1516 1510 1505 1499 1493 1488 1483 1477 1472 1467 1461 1456
1609 1607 1594 1582 1580 1580 1582 1581 1579 1582 1585 1588 1590 1592 1593 1593 1593 1591 1590 1587 1585 1581 1576 1572 1566 1560 1554 1548 1542 1535 1528 1522 1516 1510 1504 1499 1493 1488 1483 1478 1472 1467 1463 1457
1609 1612 1599 1577 1579 1579 1583 1584 1578 1580 1584 1586 1589 1592 1594 1592 1591 1590 1589 1587 1584 1580 1576 1571 1565 1560 1554 1548 1541 1534 1528 1522 1516 1511 1505 1500 1495 1489 1484 1479 1474 1469 1464 1459
1608 1607 1587 1579 1578 1582 1588 1578 1577 1579 1582 1585 1587 1589 1591 1590 1590 1589 1588 1586 1583 1580 1575 1570 1565 1560 1554 1548 1541 1535 1529 1522 1517 1511 1506 1501 1495 1490 1485 1480 1475 1470 1465 1461
1597 1600 1587 1576 1577 1579 1576 1573 1576 1579 1581 1583 1585 1586 1588 1588 1588 1588 1587 1585 1582 1579 1575 1570 1565 1560 1554 1548 1542 1536 1529 1523 1517 1512 1507 1501 1496 1491 1486 1481 1476 1472 1468 1464
1580 1577 1566 1568 1568 1570 1570 1573 1575 1577 1579 1581 1582 1584 1585 1586 1587 1587 1586 1584 1581 1578 1574 1570 1566 1560 1554 1549 1543 1536 1529 1524 1518 1513 1507 1502 1496 1491 1487 1482 1478 1474 1470 1467
1572 1564 1563 1565 1566 1567 1569 1570 1573 1575 1577 1579 1580 1582 1583 1585 1585 1586 1585 1583 1580 1577 1573 1570 1565 1561 1556 1550 1544 1537 1530 1525 1519 1514 1508 1503 1497 1493 1488 1484 1480 1476 1472 1469
1567 1561 1561 1562 1562 1564 1566 1568 1571 1574 1575 1577 1578 1580 1582 1583 1584 1584 1584 1582 1579 1576 1573 1569 1565 1561 1556 1551 1544 1538 1531 1526 1521 1515 1510 1504 1499 1495 1491 1487 1483 1479 1475 1472
1558 1551 1553 1554 1556 1559 1562 1565 1568 1571 1573 1575 1577 1578 1580 1582 1583 1583 1582 1581 1578 1576 1573 1569 1565 1561 1556 1551 1545 1539 1533 1527 1522 1517 1512 1506 1501 1496 1493 1489 1485 1481 1478 1475
1547 1547 1549 1549 1553 1555 1559 1563 1566 1569 1571 1573 1575 1577 1579 1580 1581 1581 1581 1579 1577 1575 1572 1569 1565 1561 1557 1552 1547 1541 1535 1530 1525 1519 1514 1508 1503 1497 1493 1489 1486 1482 1479 1476
1542 1545 1546 1548 1550 1553 1556 1560 1564 1566 1569 1571 1573 1575 1577 1579 1580 1580 1579 1578 1576 1574 1571 1568 1565 1562 1557 1553 1548 1543 1537 1532 1527 1522 1517 1511 1506 1501 1495 1491 1486 1482 1479 1476
1538 1541 1542 1544 1546 1549 1553 1557 1560 1563 1566 1568 1571 1573 1575 1577 1578 1578 1578 1577 1575 1573 1571 1568 1565 1562 1558 1554 1549 1544 1539 1533 1529 1524 1519 1514 1508 1503 1498 1493 1488 1484 1480 1476
1534 1536 1538 1540 1542 1545 1549 1553 1556 1559 1562 1565 1568 1571 1573 1575 1576 1577 1576 1576 1574 1572 1570 1568 1565 1561 1557 1554 1550 1545 1541 1536 1531 1526 1520 1515 1510 1505 1500 1495 1490 1485 1480 1476
1527 1529 1532 1534 1537 1540 1544 1549 1552 1556 1559 1562 1565 1568 1571 1573 1574 1575 1575 1574 1573 1571 1569 1567 1564 1561 1557 1554 1550 1546 1541 1537 1532 1527 1522 1516 1512 1507 1501 1496 1491 1486 1481 1477
1519 1522 1524 1527 1531 1536 1541 1546 1549 1553 1556 1560 1563 1566 1568 1571 1572 1573 1573 1573 1572 1570 1568 1566 1563 1560 1557 1554 1550 1546 1542 1537 1533 1528 1523 1518 1513 1508 1503 1498 1492 1487 1482 1477
1514 1518 1521 1525 1530 1534 1538 1542 1546 1550 1553 1557 1560 1563 1566 1568 1570 1571 1572 1571 1570 1569 1567 1565 1563 1560 1557 1554 1550 1546 1542 1538 1533 1529 1524 1519 1514 1509 1504 1499 1493 1488 1483 1477
1509 1513 1517 1522 1527 1531 1536 1539 1543 1546 1550 1553 1557 1560 1563 1565 1567 1569 1569 1569 1569 1567 1566 1564 1562 1560 1557 1553 1550 1546 1542 1538 1533 1529 1524 1519 1514 1509 1504 1500 1495 1489 1484 1478
1503 1508 1512 1517 1522 1528 1532 1535 1539 1542 1546 1549 1553 1557 1560 1562 1564 1566 1566 1567 1567 1566 1565 1563 1561 1558 1556 1553 1550 1546 1542 1538 1534 1529 1524 1519 1514 1509 1505 1500 1495 1490 1485 1479
1498 1503 1508 1513 1518 1522 1527 1531 1535 1539 1542 1546 1550 1553 1556 1559 1561 1563 1564 1565 1564 1564 1563 1561 1559 1557 1555 1552 1549 1546 1543 1539 1534 1530 1525 1520 1515 1510 1505 1501 1496 1491 1486 1480
1493 1498 1503 1508 1514 1519 1523 1527 1530 1534 1538 1541 1545 1548 1552 1555 1558 1560 1561 1562 1562 1561 1560 1559 1557 1556 1554 1551 1549 1546 1543 1539 1535 1531 1526 1522 1517 1511 1506 1501 1496 1491 1486 1480
1488 1493 1499 1505 1510 1514 1518 1522 1526 1530 1535 1538 1542 1545 1548 1551 1554 1556 1558 1558 1559 1558 1558 1557 1556 1554 1552 1551 1548 1546 1543 1540 1536 1532 1528 1523 1519 1513 1508 1502 1497 1491 1486 1480
1483 1488 1494 1498 1503 1508 1514 1518 1522 1526 1529 1533 1537 1540 1544 1547 1550 1552 1554 1555 1555 1556 1555 1554 1553 1552 1551 1549 1548 1545 1543 1540 1536 1533 1529 1525 1520 1515 1509 1504 1497 1491 1486 1480
1477 1482 1487 1493 1499 1504 1508 1512 1516 1520 1523 1527 1530 1534 1538 1541 1545 1547 1549 1551 1552 1552 1552 1552 1551 1550 1549 1548 1547 1545 1542 1540 1537 1534 1530 1526 1521 1516 1511 1505 1499 1492 1486 1480
1474 1479 1484 1489 1494 1498 1503 1507 1510 1514 1517 1521 1525 1529 1532 1536 1539 1542 1544 1546 1548 1549 1549 1549 1549 1548 1547 1546 1545 1543 1541 1539 1536 1533 1530 1526 1521 1516 1511 1506 1499 1493 1487 1480